Location: Brachbach
(49.1847°N, 9.7240°E)
Time: 05:20:57
(UTC+00:00)

STARS - Pass Details

Date: 22 March 2026
Orbit: 575 x 588 km, 98.2° (Epoch: 15 April)

Event Time Altitude Azimuth Distance (km) Brightness Sun altitude
Rises 02:53:40 0° 360° (N) 2,801 ? -23.6°
Reaches altitude 10° 02:56:28 10° 339° (NNW) 1,896 ? -23.2°
Enters shadow 02:57:33 14° 326° (NW) 1,656 ? -23.0°
